Content
SEND FEEDBACK

Daily
Averages
Monthly
Summary
Spain

BILBAO, SPAIN


Home > Europe > Spain
Elevation: 112 feet     Latitude: 43 18N     Longitude: 002 56W

WEATHER
 
SELECT A DAY
Number of Records: 227,142;   Date Range: 7/1/96 - 9/22/14
 
SHARE

PRINT THIS DATA

[ ← Previous Day ]
WEATHER ALMANAC - FEBRUARY 21, 2013
[ Next Day → ]
[ °C ]   °F
Weather ElementAverageHighLow
Temperature52.2 °F60.8 °F (3:00 pm)44.6 °F (8:30 am)
Dewpoint46.9 °F51.8 °F (3:00 pm)42.8 °F (5:30 am)
Humidity82.7 %93 % (7:30 am)68 % (4:00 pm)
Barometer29.77 in29.83 in (6:30 am)29.71 in (4:30 pm)
Wind Speed3 mph9.2 mph (4:30 pm)
Weather ElementAverage
Visibility6 mi
Wind DirectionESE (116.7 °)

Weather ElementTotal
Precipitation---
Heating Degree Days12.3 (Base 65)
Growing Degree Days2.7 (Base 50)
Averaged from 36 records on February 21, 2013
WEATHER CONDITIONS BREAKOUT
WIND DIRECTION BREAKOUT
WEATHER BY HOUR - FEBRUARY 21, 2013
[ °C ]   °F
Local TimeTemperatureDewpointHumidityBarometerVisibilityWind DirectionWind SpeedGust SpeedPrecipitationEventsConditions
5:30 AM48.2 °F42.8 °F82 %29.80 in6.2 miVariable2.3 mphPartly Cloudy
6:00 AM48.2 °F44.6 °F87 %29.80 in6.2 miVariable2.3 mphPartly Cloudy
6:30 AM48.2 °F44.6 °F87 %29.83 in6.2 miVariable1.2 mphPartly Cloudy
7:00 AM48.2 °F44.6 °F87 %29.83 in6.2 miCalmPartly Cloudy
7:30 AM48.2 °F46.4 °F93 %29.83 in6.2 miCalmScattered Clouds
8:00 AM46.4 °F44.6 °F93 %29.83 in6.2 miVariable1.2 mphScattered Clouds
8:30 AM44.6 °F42.8 °F93 %29.83 in6.2 miVariable2.3 mphScattered Clouds
9:00 AM46.4 °F44.6 °F93 %29.83 in6.2 miVariable2.3 mphScattered Clouds
9:30 AM48.2 °F46.4 °F93 %29.83 in6.2 miVariable1.2 mphPartly Cloudy
10:00 AM48.2 °F46.4 °F93 %29.83 in6.2 miVariable2.3 mphPartly Cloudy
10:30 AM51.8 °F48.2 °F88 %29.83 in5.0 miVariable2.3 mphPartly Cloudy
11:00 AM53.6 °F50.0 °F88 %29.83 in5.0 miCalmPartly Cloudy
11:30 AM55.4 °F50.0 °F82 %29.83 inCalmClear
12:00 PM55.4 °F46.4 °F72 %29.83 inCalmClear
12:30 PM57.2 °F48.2 °F72 %29.83 inCalmClear
1:00 PM57.2 °F48.2 °F72 %29.80 inCalmClear
1:30 PM57.2 °F48.2 °F72 %29.80 inVariable2.3 mphClear
2:00 PM59.0 °F50.0 °F72 %29.77 inCalmClear
3:00 PM60.8 °F51.8 °F72 %29.74 inCalmClear
3:30 PM59.0 °F50.0 °F72 %29.74 in6.2 miWest (280°)6.9 mphPartly Cloudy
4:00 PM60.8 °F50.0 °F68 %29.74 in6.2 miWNW (290°)6.9 mphPartly Cloudy
4:30 PM59.0 °F50.0 °F72 %29.71 in6.2 miWNW (290°)9.2 mphPartly Cloudy
5:00 PM57.2 °F48.2 °F72 %29.71 in6.2 miWNW (290°)9.2 mphPartly Cloudy
5:30 PM55.4 °F48.2 °F77 %29.71 in6.2 miWNW (300°)8.1 mphPartly Cloudy
6:00 PM53.6 °F48.2 °F82 %29.71 in6.2 miWNW (300°)5.8 mphPartly Cloudy
6:30 PM53.6 °F46.4 °F77 %29.71 in6.2 miWNW (300°)5.8 mphPartly Cloudy
7:00 PM51.8 °F46.4 °F82 %29.71 in6.2 miNW (310°)4.6 mphPartly Cloudy
7:30 PM51.8 °F46.4 °F82 %29.74 in6.2 miNW (310°)5.8 mphScattered Clouds
8:00 PM50.0 °F46.4 °F87 %29.71 in6.2 miWNW (300°)4.6 mphMostly Cloudy
8:30 PM50.0 °F46.4 °F87 %29.71 in6.2 miWNW (300°)4.6 mphMostly Cloudy
9:00 PM50.0 °F44.6 °F82 %29.71 in6.2 miWNW (300°)5.8 mphMostly Cloudy
9:30 PM50.0 °F46.4 °F87 %29.71 in5.6 miNW (310°)5.8 mphRainLight Rain
10:00 PM48.2 °F46.4 °F93 %29.71 in5.0 miNW (320°)3.5 mphMostly Cloudy
10:30 PM48.2 °F46.4 °F93 %29.71 in5.0 miVariable1.2 mphRainLight Rain
11:00 PM48.2 °F44.6 °F87 %29.71 in5.6 miCalmMostly Cloudy
11:30 PM48.2 °F44.6 °F87 %29.71 in5.6 miCalmMostly Cloudy
Hourly data recorded from LEBB, located miles away from Bilbao, Spain







STORIES FROM OUR PARTNERS